Location: *
(29.1167°S, 130.0000°E)
Time: 07:03:07
(UTC+00:00)

Abrixas rocket - Pass Details

Date: 21 July 2019
Orbit: 364 x 374 km, 48.4° (Epoch: 23 August)

Event Time Altitude Azimuth Distance (km) Brightness Sun altitude
Rises 10:18:18 0° 316° (NW) 2,200 6.8 -20.7°
Reaches altitude 10° 10:20:20 10° 317° (NW) 1,361 5.6 -21.2°
Enters shadow 10:22:29 42° 326° (NW) 542 3.1 -21.6°
